Weather observations for the past three days for
San Antonio, Stinson Municipal Airport
Metric (Imperial)
Date Time (cdt) Wind (kph) Vis. (km) Weather Sky Cond. Temperature (ºC) Relative Humidity Wind Chill (°C) Heat Index (°C) Pressure Precipitation (cm)
Air Dwpt 6 hour altimeter (cm) sea level (mb) 1 hr 3 hr 6 hr
Max. Min.
31 09:53 SE 13 16.09 Partly Cloudy SCT019 29 24 74% 34 76.23 0.0
31 08:53 E 9 16.09 Mostly Cloudy BKN010 27 24 84% 30 76.17 0.0
30 20:59 SE 20 G 41 16.09 Fair CLR 32 21 52% 35 75.95 0.0
30 19:55 SE 28 G 37 16.09 Fair CLR 34 21 47% 37 75.9 0.0
30 17:59 SE 20 G 30 16.09 Fair CLR 37 18 33% 39 76.1 0.0
30 16:53 SE 11 G 33 16.09 A Few Clouds FEW070 37 18 33% 39 75.9 0.0
30 14:53 SE 22 G 30 16.09 Fair CLR 37 20 37% 40 76.02 0.0
30 13:53 SE 15 16.09 Partly Cloudy SCT065 35 20 41% 38 76.1 0.0
30 12:53 SE 15 G 28 16.09 Partly Cloudy SCT050 35 20 41% 38 76.17 0.0
30 11:53 SE 19 G 28 16.09 Mostly Cloudy BKN043 33 21 49% 36 76.23 0.0
30 10:53 Calm 16.09 A Few Clouds FEW027 31 23 62% 35 76.25 0.0
30 09:53 S 11 16.09 Partly Cloudy SCT017 29 24 74% 34 76.28 0.0
30 08:53 SE 9 16.09 Overcast OVC011 27 24 84% 30 76.25 0.0
30 08:03 SE 6 16.09 Overcast OVC009 26 24 89% 28 76.23 0.0
29 20:53 Calm 16.09 Fair CLR 33 21 49% 36 76.05 0.0
29 19:53 Calm 16.09 Fair CLR 34 16 34% 34 75.97 0.0
29 18:53 Calm 16.09 Fair CLR 37 17 31% 38 75.97 0.0
29 17:53 Calm 16.09 Fair CLR 37 18 33% 39 76 0.0
29 16:53 Calm 16.09 NULL NULL 37 17 31% 38 76.02 0.0
29 14:53 Vrbl 11 16.09 A Few Clouds FEW065 36 20 39% 39 76.15 0.0
29 12:53 SE 7 16.09 A Few Clouds FEW055 34 20 44% 36 76.3 0.0
29 11:53 S 15 16.09 A Few Clouds FEW045 34 32 89% 58 76.35 0.0
29 10:53 Calm 16.09 Fair CLR 32 22 55% 36 76.35 0.0
29 09:53 S 11 16.09 A Few Clouds FEW016 29 24 74% 34 76.35 0.0
29 08:53 SE 6 16.09 Fair CLR 27 24 84% 30 76.33 0.0
29 07:53 Calm 16.09 Fair CLR 25 24 94% 26 76.33 0.0
29 06:58 NE 6 16.09 Fair CLR 24 23 94% 23 76.3 0.0
28 20:53 SE 24 G 41 16.09 Overcast BKN080 BKN100 OVC120 31.1 20 52% 33 76.12 1013.6
28 19:53 SE 31 G 41 16.09 A Few Clouds FEW100 33.3 21.1 49% 37 76.07 1012.7
28 18:53 SE 19 16.09 Fair CLR 36.7 18.9 38.3 34.4 35% 39 75.97 1011.2
28 17:53 SE 19 16.09 Fair CLR 37.8 18.3 32% 40 75.97 1011.3
28 16:53 SE 9 16.09 A Few Clouds FEW080 37.8 18.3 32% 40 76 1011.5
28 15:53 Calm 16.09 Fair CLR 37.2 18.3 33% 39 76.05 1012.4
28 14:53 Calm 16.09 Fair CLR 36.7 18.9 35% 39 76.15 1013.9
28 13:53 Vrbl 9 16.09 Partly Cloudy SCT085 36.1 19.4 37% 38 76.23 1014.7
28 12:53 Vrbl 6 16.09 Fair CLR 34.4 19.4 35 25 41% 36 76.28 1015.5
28 11:53 Calm 16.09 Fair CLR 33.3 20 46% 36 76.33 1016.1
Date Time (cdt) Wind (kph) Vis. (km) Weather Sky Cond. Air Dwpt Max. Min. Relative Humidity Wind Chill (°C) Heat Index (°C) altimeter (cm) sea level (mb) 1 hr 3 hr 6 hr
6 hour
Temperature (ºC) Pressure Precipitation (cm)